| time (UTC) | temp F | wind direction | speed MPH | gust MPH | rain 1hr in | rain 24hr in | rain mn in | humidity % | barometer mb |
| 20260510175511 | 75 | 291 | 0.0 | 0.0 | 0.00 | 0.00 | 0.00 | 53 | 1008.8 |
| 20260510175011 | 75 | 302 | 0.0 | 0.0 | 0.00 | 0.00 | 0.00 | 56 | 1008.8 |
| 20260510174511 | 75 | 304 | 5.0 | 0.0 | 0.00 | 0.00 | 0.00 | 54 | 1008.8 |
| 20260510174011 | 75 | 321 | 0.0 | 0.0 | 0.00 | 0.00 | 0.00 | 56 | 1008.8 |
| 20260510173513 | 75 | 295 | 0.0 | 0.0 | 0.00 | 0.00 | 0.00 | 53 | 1008.8 |
| 20260510173011 | 75 | 308 | 2.0 | 0.0 | 0.00 | 0.00 | 0.00 | 53 | 1008.8 |
| 20260510172511 | 74 | 317 | 0.0 | 0.0 | 0.00 | 0.00 | 0.00 | 52 | 1008.9 |
| 20260510172011 | 74 | 285 | 0.0 | 0.0 | 0.00 | 0.00 | 0.00 | 52 | 1008.9 |
| 20260510171511 | 75 | 234 | 0.0 | 0.0 | 0.00 | 0.00 | 0.00 | 51 | 1008.9 |
| 20260510171011 | 76 | 285 | 2.0 | 0.0 | 0.00 | 0.00 | 0.00 | 51 | 1008.6 |
| 20260510170511 | 77 | 287 | 4.0 | 0.0 | 0.00 | 0.00 | 0.00 | 50 | 1008.6 |
| 20260510165511 | 77 | 293 | 5.0 | 0.0 | 0.00 | 0.00 | 0.00 | 49 | 1008.7 |
| 20260510165011 | 76 | 0.0 | 0.0 | 0.00 | 0.00 | 0.00 | 51 | 1008.7 | |
| 20260510163511 | 75 | 298 | 0.0 | 0.0 | 0.00 | 0.00 | 0.00 | 51 | 1008.7 |
| 20260510163011 | 75 | 256 | 0.0 | 0.0 | 0.00 | 0.00 | 0.00 | 51 | 1008.7 |
| 20260510161511 | 76 | 305 | 0.0 | 0.0 | 0.00 | 0.00 | 0.00 | 49 | 1008.8 |
| 20260510160511 | 77 | 319 | 0.0 | 0.0 | 0.00 | 0.00 | 0.00 | 51 | 1008.7 |
| 20260510160011 | 76 | 323 | 0.0 | 0.0 | 0.00 | 0.00 | 0.00 | 51 | 1008.7 |
| 20260510155511 | 76 | 105 | 0.0 | 0.0 | 0.00 | 0.00 | 0.00 | 51 | 1008.7 |
| 20260510155012 | 75 | 4 | 0.0 | 0.0 | 0.00 | 0.00 | 0.00 | 52 | 1008.7 |
| 20260510154511 | 75 | 194 | 0.0 | 0.0 | 0.00 | 0.00 | 0.00 | 50 | 1008.7 |
| 20260510152511 | 73 | 193 | 4.0 | 0.0 | 0.00 | 0.00 | 0.00 | 54 | 1008.9 |
| 20260510151510 | 73 | 199 | 5.0 | 0.0 | 0.00 | 0.00 | 0.00 | 52 | 1008.9 |
| 20260510150511 | 72 | 277 | 0.0 | 0.0 | 0.00 | 0.00 | 0.00 | 54 | 1008.9 |
| 20260510145011 | 72 | 219 | 0.0 | 0.0 | 0.00 | 0.00 | 0.00 | 56 | 1009.2 |
| 20260510144511 | 71 | 185 | 0.0 | 0.0 | 0.00 | 0.00 | 0.00 | 57 | 1009.2 |
| 20260510144011 | 71 | 251 | 3.0 | 0.0 | 0.00 | 0.00 | 0.00 | 56 | 1009.2 |
| 20260510143010 | 70 | 295 | 0.0 | 0.0 | 0.00 | 0.00 | 0.00 | 59 | 1009.2 |
| 20260510142511 | 69 | 224 | 2.0 | 0.0 | 0.00 | 0.00 | 0.00 | 61 | 1009.3 |
| 20260510141511 | 68 | 275 | 0.0 | 0.0 | 0.00 | 0.00 | 0.00 | 63 | 1009.3 |
| 20260510141011 | 68 | 198 | 0.0 | 0.0 | 0.00 | 0.00 | 0.00 | 63 | 1009.2 |
| 20260510140511 | 68 | 197 | 0.0 | 0.0 | 0.00 | 0.00 | 0.00 | 63 | 1009.2 |
| 20260510140011 | 68 | 198 | 2.0 | 0.0 | 0.00 | 0.00 | 0.00 | 62 | 1009.2 |
| 20260510135510 | 68 | 166 | 2.0 | 0.0 | 0.00 | 0.00 | 0.00 | 63 | 1009.2 |
| 20260510134510 | 67 | 207 | 0.0 | 0.0 | 0.00 | 0.00 | 0.00 | 69 | 1009.2 |
| 20260510133510 | 66 | 207 | 0.0 | 0.0 | 0.00 | 0.00 | 0.00 | 68 | 1009.1 |
| 20260510133010 | 66 | 207 | 0.0 | 0.0 | 0.00 | 0.00 | 0.00 | 69 | 1009.1 |
| 20260510132510 | 65 | 244 | 0.0 | 0.0 | 0.00 | 0.00 | 0.00 | 74 | 1009.0 |
| 20260510132012 | 64 | 198 | 0.0 | 0.0 | 0.00 | 0.00 | 0.00 | 76 | 1009.0 |
| 20260510131510 | 63 | 8 | 0.0 | 0.0 | 0.00 | 0.00 | 0.00 | 79 | 1009.0 |
| 20260510131010 | 62 | 8 | 0.0 | 0.0 | 0.00 | 0.00 | 0.00 | 83 | 1009.1 |
| 20260510130510 | 62 | 9 | 0.0 | 0.0 | 0.00 | 0.00 | 0.00 | 82 | 1009.1 |
| 20260510130010 | 62 | 108 | 0.0 | 0.0 | 0.00 | 0.00 | 0.00 | 85 | 1009.1 |
| 20260510125510 | 61 | 355 | 0.0 | 0.0 | 0.00 | 0.00 | 0.00 | 87 | 1009.0 |
| 20260510124010 | 59 | 145 | 0.0 | 0.0 | 0.00 | 0.00 | 0.00 | 97 | 1009.1 |
| 20260510123511 | 58 | 146 | 0.0 | 0.0 | 0.00 | 0.00 | 0.00 | 99 | 1009.1 |
| 20260510122511 | 56 | 146 | 0.0 | 0.0 | 0.00 | 0.00 | 0.00 | 100 | 1009.2 |
| 20260510122011 | 56 | 145 | 0.0 | 0.0 | 0.00 | 0.00 | 0.00 | 100 | 1009.2 |
| 20260510121510 | 55 | 146 | 0.0 | 0.0 | 0.00 | 0.00 | 0.00 | 100 | 1009.2 |
| 20260510121013 | 55 | 145 | 0.0 | 0.0 | 0.00 | 0.00 | 0.00 | 100 | 1008.9 |
| 20260510120511 | 54 | 145 | 0.0 | 0.0 | 0.00 | 0.00 | 0.00 | 100 | 1008.9 |
| 20260510120011 | 54 | 145 | 0.0 | 0.0 | 0.00 | 0.00 | 0.00 | 100 | 1008.9 |
| 20260510115511 | 53 | 145 | 0.0 | 0.0 | 0.00 | 0.00 | 0.00 | 100 | 1008.9 |
| 20260510115010 | 53 | 146 | 0.0 | 0.0 | 0.00 | 0.00 | 0.00 | 100 | 1008.9 |
| 20260510114011 | 52 | 146 | 0.0 | 0.0 | 0.00 | 0.00 | 0.00 | 100 | 1008.8 |
| 20260510113511 | 51 | 145 | 0.0 | 0.0 | 0.00 | 0.00 | 0.00 | 100 | 1008.8 |
| 20260510113011 | 51 | 146 | 0.0 | 0.0 | 0.00 | 0.00 | 0.00 | 100 | 1008.8 |
| 20260510112511 | 51 | 145 | 0.0 | 0.0 | 0.00 | 0.00 | 0.00 | 100 | 1008.3 |
| 20260510112012 | 51 | 145 | 0.0 | 0.0 | 0.00 | 0.00 | 0.00 | 100 | 1008.3 |
| 20260510111513 | 50 | 146 | 0.0 | 0.0 | 0.00 | 0.00 | 0.00 | 100 | 1008.3 |
| 20260510111011 | 50 | 146 | 0.0 | 0.0 | 0.00 | 0.00 | 0.00 | 100 | 1008.3 |
| 20260510110511 | 50 | 146 | 0.0 | 0.0 | 0.00 | 0.00 | 0.00 | 100 | 1008.3 |
| 20260510110011 | 50 | 145 | 0.0 | 0.0 | 0.00 | 0.00 | 0.00 | 100 | 1008.3 |
| 20260510105511 | 50 | 146 | 0.0 | 0.0 | 0.00 | 0.00 | 0.00 | 100 | 1007.9 |
| 20260510105011 | 50 | 145 | 0.0 | 0.0 | 0.00 | 0.00 | 0.00 | 100 | 1007.9 |
| 20260510104511 | 50 | 145 | 0.0 | 0.0 | 0.00 | 0.00 | 0.00 | 100 | 1007.9 |
| 20260510104011 | 50 | 145 | 0.0 | 0.0 | 0.00 | 0.00 | 0.00 | 100 | 1007.9 |
| 20260510103011 | 50 | 145 | 0.0 | 0.0 | 0.00 | 0.00 | 0.00 | 100 | 1007.9 |
| 20260510102511 | 50 | 145 | 0.0 | 0.0 | 0.00 | 0.00 | 0.00 | 100 | 1007.8 |
| 20260510101511 | 50 | 146 | 0.0 | 0.0 | 0.00 | 0.00 | 0.00 | 100 | 1007.8 |
| 20260510100511 | 50 | 145 | 0.0 | 0.0 | 0.00 | 0.00 | 0.00 | 100 | 1007.5 |
| 20260510100011 | 50 | 145 | 0.0 | 0.0 | 0.00 | 0.00 | 0.00 | 100 | 1007.5 |
| 20260510095511 | 50 | 146 | 0.0 | 0.0 | 0.00 | 0.00 | 0.00 | 100 | 1007.3 |
| 20260510095011 | 50 | 145 | 0.0 | 0.0 | 0.00 | 0.00 | 0.00 | 100 | 1007.3 |
| 20260510094511 | 50 | 146 | 0.0 | 0.0 | 0.00 | 0.00 | 0.00 | 100 | 1007.3 |
| 20260510094011 | 50 | 145 | 0.0 | 0.0 | 0.00 | 0.00 | 0.00 | 100 | 1007.2 |
| 20260510093511 | 50 | 145 | 0.0 | 0.0 | 0.00 | 0.00 | 0.00 | 100 | 1007.2 |
| 20260510093011 | 50 | 145 | 0.0 | 0.0 | 0.00 | 0.00 | 0.00 | 100 | 1007.2 |
| 20260510092513 | 50 | 145 | 0.0 | 0.0 | 0.00 | 0.00 | 0.00 | 100 | 1007.1 |
| 20260510092011 | 50 | 146 | 0.0 | 0.0 | 0.00 | 0.00 | 0.00 | 100 | 1007.1 |
| 20260510091511 | 50 | 146 | 0.0 | 0.0 | 0.00 | 0.00 | 0.00 | 100 | 1007.1 |
| 20260510091011 | 50 | 145 | 0.0 | 0.0 | 0.00 | 0.00 | 0.00 | 100 | 1007.0 |
| 20260510090511 | 50 | 145 | 0.0 | 0.0 | 0.00 | 0.00 | 0.00 | 100 | 1007.0 |
| 20260510090012 | 50 | 146 | 0.0 | 0.0 | 0.00 | 0.00 | 0.00 | 100 | 1007.0 |
| 20260510085512 | 50 | 146 | 0.0 | 0.0 | 0.00 | 0.00 | 0.00 | 100 | 1006.8 |
| 20260510085011 | 50 | 146 | 0.0 | 0.0 | 0.00 | 0.00 | 0.00 | 100 | 1006.8 |
| 20260510084511 | 50 | 146 | 0.0 | 0.0 | 0.00 | 0.00 | 0.00 | 100 | 1006.8 |
| 20260510083511 | 50 | 145 | 0.0 | 0.0 | 0.00 | 0.00 | 0.00 | 100 | 1006.7 |
| 20260510083010 | 50 | 146 | 0.0 | 0.0 | 0.00 | 0.00 | 0.00 | 100 | 1006.7 |
| 20260510082011 | 50 | 145 | 0.0 | 0.0 | 0.00 | 0.00 | 0.00 | 100 | 1006.7 |
| 20260510081513 | 50 | 146 | 0.0 | 0.0 | 0.00 | 0.00 | 0.00 | 100 | 1006.7 |
| 20260510081011 | 51 | 145 | 0.0 | 0.0 | 0.00 | 0.00 | 0.00 | 100 | 1006.7 |
| 20260510080511 | 51 | 146 | 0.0 | 0.0 | 0.00 | 0.00 | 0.00 | 100 | 1006.7 |
| 20260510080011 | 51 | 145 | 0.0 | 0.0 | 0.00 | 0.00 | 0.00 | 100 | 1006.7 |
| 20260510075011 | 51 | 145 | 0.0 | 0.0 | 0.00 | 0.00 | 0.00 | 100 | 1006.5 |
| 20260510074511 | 51 | 146 | 0.0 | 0.0 | 0.00 | 0.00 | 0.00 | 100 | 1006.5 |
| 20260510074011 | 51 | 145 | 0.0 | 0.0 | 0.00 | 0.00 | 0.00 | 100 | 1006.5 |
| 20260510073012 | 51 | 145 | 0.0 | 0.0 | 0.00 | 0.00 | 0.00 | 99 | 1006.5 |
| 20260510072511 | 51 | 145 | 0.0 | 0.0 | 0.00 | 0.00 | 0.00 | 99 | 1006.5 |
| 20260510072011 | 51 | 145 | 0.0 | 0.0 | 0.00 | 0.00 | 0.00 | 99 | 1006.5 |
| 20260510071511 | 51 | 146 | 0.0 | 0.0 | 0.00 | 0.00 | 0.00 | 99 | 1006.5 |
| 20260510071011 | 51 | 146 | 0.0 | 0.0 | 0.00 | 0.00 | 0.00 | 99 | 1006.5 |
| 20260510070010 | 52 | 146 | 0.0 | 0.0 | 0.00 | 0.00 | 0.00 | 99 | 1006.5 |
| 20260510065510 | 52 | 146 | 0.0 | 0.0 | 0.00 | 0.00 | 0.00 | 99 | 1006.4 |
| 20260510065013 | 52 | 146 | 0.0 | 0.0 | 0.00 | 0.00 | 0.00 | 99 | 1006.4 |
| 20260510064511 | 52 | 146 | 0.0 | 0.0 | 0.00 | 0.00 | 0.00 | 99 | 1006.4 |
| 20260510064011 | 52 | 146 | 0.0 | 0.0 | 0.00 | 0.00 | 0.00 | 99 | 1006.5 |
| 20260510063511 | 52 | 145 | 0.0 | 0.0 | 0.00 | 0.00 | 0.00 | 99 | 1006.5 |
| 20260510063013 | 52 | 145 | 0.0 | 0.0 | 0.00 | 0.00 | 0.00 | 98 | 1006.5 |
| 20260510062511 | 52 | 146 | 0.0 | 0.0 | 0.00 | 0.00 | 0.00 | 98 | 1006.5 |
| 20260510062010 | 52 | 146 | 0.0 | 0.0 | 0.00 | 0.00 | 0.00 | 98 | 1006.5 |
| 20260510061511 | 52 | 146 | 0.0 | 0.0 | 0.00 | 0.00 | 0.00 | 98 | 1006.5 |
| 20260510060511 | 52 | 145 | 0.0 | 0.0 | 0.00 | 0.00 | 0.00 | 98 | 1006.7 |
| 20260510060011 | 52 | 146 | 0.0 | 0.0 | 0.00 | 0.00 | 0.00 | 98 | 1006.7 |
| 20260510055512 | 52 | 145 | 0.0 | 0.0 | 0.00 | 0.00 | 0.00 | 97 | 1006.7 |
| 20260510054011 | 52 | 145 | 0.0 | 0.0 | 0.00 | 0.00 | 0.00 | 97 | 1006.7 |
| 20260510053511 | 52 | 146 | 0.0 | 0.0 | 0.00 | 0.00 | 0.00 | 97 | 1006.7 |
| 20260510053010 | 52 | 146 | 0.0 | 0.0 | 0.00 | 0.00 | 0.00 | 97 | 1006.7 |
| 20260510052510 | 52 | 145 | 0.0 | 0.0 | 0.00 | 0.00 | 0.00 | 97 | 1006.7 |
| 20260510052011 | 52 | 146 | 0.0 | 0.0 | 0.00 | 0.00 | 0.00 | 96 | 1006.7 |
| 20260510051512 | 53 | 146 | 0.0 | 0.0 | 0.00 | 0.00 | 0.00 | 96 | 1006.7 |
| 20260510051010 | 53 | 146 | 0.0 | 0.0 | 0.00 | 0.00 | 0.00 | 96 | 1006.8 |
| 20260510050511 | 53 | 145 | 0.0 | 0.0 | 0.00 | 0.00 | 0.00 | 96 | 1006.8 |
| 20260510050010 | 53 | 145 | 0.0 | 0.0 | 0.00 | 0.00 | 0.00 | 95 | 1006.8 |
| 20260510045511 | 53 | 146 | 0.0 | 0.0 | 0.00 | 0.00 | 0.00 | 95 | 1006.9 |
| 20260510045011 | 53 | 146 | 0.0 | 0.0 | 0.00 | 0.00 | 0.00 | 95 | 1006.9 |
| 20260510044011 | 53 | 146 | 0.0 | 0.0 | 0.00 | 0.00 | 0.00 | 95 | 1007.0 |
| 20260510043010 | 54 | 146 | 0.0 | 0.0 | 0.00 | 0.00 | 0.00 | 94 | 1007.0 |
| 20260510042511 | 54 | 146 | 0.0 | 0.0 | 0.00 | 0.00 | 0.00 | 94 | 1007.0 |
| 20260510041010 | 54 | 145 | 0.0 | 0.0 | 0.00 | 0.00 | 0.00 | 94 | 1006.9 |
| 20260510040011 | 55 | 145 | 0.0 | 0.0 | 0.00 | 0.00 | 0.00 | 94 | 1006.9 |
| 20260510035012 | 55 | 146 | 0.0 | 0.0 | 0.00 | 0.00 | 0.00 | 93 | 1006.9 |
| 20260510034510 | 55 | 146 | 0.0 | 0.0 | 0.00 | 0.00 | 0.00 | 93 | 1006.9 |
| 20260510034011 | 55 | 146 | 0.0 | 0.0 | 0.00 | 0.00 | 0.00 | 92 | 1006.7 |
| 20260510033512 | 55 | 146 | 0.0 | 0.0 | 0.00 | 0.00 | 0.00 | 92 | 1006.7 |
| 20260510033012 | 55 | 146 | 0.0 | 0.0 | 0.00 | 0.00 | 0.00 | 92 | 1006.7 |
| 20260510032510 | 55 | 146 | 0.0 | 0.0 | 0.00 | 0.00 | 0.00 | 91 | 1006.6 |
| 20260510032012 | 56 | 146 | 0.0 | 0.0 | 0.00 | 0.00 | 0.00 | 91 | 1006.6 |
| 20260510031510 | 56 | 147 | 0.0 | 0.0 | 0.00 | 0.00 | 0.00 | 90 | 1006.6 |
| 20260510031010 | 56 | 148 | 0.0 | 0.0 | 0.00 | 0.00 | 0.00 | 90 | 1006.7 |
| 20260510030510 | 56 | 147 | 0.0 | 0.0 | 0.00 | 0.00 | 0.00 | 89 | 1006.7 |
| 20260510030010 | 56 | 148 | 0.0 | 0.0 | 0.00 | 0.00 | 0.00 | 88 | 1006.7 |
| 20260510025510 | 57 | 147 | 0.0 | 0.0 | 0.00 | 0.00 | 0.00 | 88 | 1006.3 |
| 20260510025012 | 57 | 148 | 0.0 | 0.0 | 0.00 | 0.00 | 0.00 | 88 | 1006.3 |
| 20260510024010 | 57 | 148 | 0.0 | 0.0 | 0.00 | 0.00 | 0.00 | 87 | 1006.2 |
| 20260510023510 | 57 | 148 | 0.0 | 0.0 | 0.00 | 0.00 | 0.00 | 86 | 1006.2 |
| 20260510023010 | 58 | 148 | 0.0 | 0.0 | 0.00 | 0.00 | 0.00 | 85 | 1006.2 |
| 20260510022510 | 58 | 148 | 2.0 | 0.0 | 0.00 | 0.00 | 0.00 | 85 | 1005.9 |
| 20260510022010 | 58 | 150 | 0.0 | 0.0 | 0.00 | 0.00 | 0.00 | 84 | 1005.9 |
| 20260510021511 | 58 | 150 | 0.0 | 0.0 | 0.00 | 0.00 | 0.00 | 84 | 1005.9 |
| 20260510021011 | 58 | 150 | 0.0 | 0.0 | 0.00 | 0.00 | 0.00 | 83 | 1005.6 |
| 20260510020511 | 59 | 150 | 3.0 | 0.0 | 0.00 | 0.00 | 0.00 | 83 | 1005.6 |
| 20260510020011 | 59 | 150 | 2.0 | 0.0 | 0.00 | 0.00 | 0.00 | 82 | 1005.6 |
| 20260510015011 | 60 | 155 | 3.0 | 0.0 | 0.00 | 0.00 | 0.00 | 80 | 1005.5 |
| 20260510014511 | 60 | 155 | 0.0 | 0.0 | 0.00 | 0.00 | 0.00 | 79 | 1005.5 |
| 20260510013511 | 60 | 223 | 0.0 | 0.0 | 0.00 | 0.00 | 0.00 | 78 | 1005.4 |
| 20260510013011 | 60 | 223 | 0.0 | 0.0 | 0.00 | 0.00 | 0.00 | 77 | 1005.4 |
| 20260510012511 | 60 | 223 | 0.0 | 0.0 | 0.00 | 0.00 | 0.00 | 76 | 1005.1 |
| 20260510012011 | 61 | 223 | 0.0 | 0.0 | 0.00 | 0.00 | 0.00 | 75 | 1005.1 |
| 20260510011511 | 61 | 223 | 0.0 | 0.0 | 0.00 | 0.00 | 0.00 | 75 | 1005.1 |
| 20260510011011 | 62 | 223 | 0.0 | 0.0 | 0.00 | 0.00 | 0.00 | 73 | 1005.0 |
| 20260510010513 | 62 | 223 | 0.0 | 0.0 | 0.00 | 0.00 | 0.00 | 73 | 1005.0 |
| 20260510010011 | 62 | 223 | 0.0 | 0.0 | 0.00 | 0.00 | 0.00 | 72 | 1005.0 |
| 20260510005511 | 63 | 223 | 0.0 | 0.0 | 0.00 | 0.00 | 0.00 | 71 | 1004.7 |
| 20260510005011 | 64 | 223 | 0.0 | 0.0 | 0.00 | 0.00 | 0.00 | 69 | 1004.7 |
| 20260510004012 | 65 | 223 | 0.0 | 0.0 | 0.00 | 0.00 | 0.00 | 66 | 1004.5 |
| 20260510003511 | 66 | 223 | 0.0 | 0.0 | 0.00 | 0.00 | 0.00 | 65 | 1004.5 |
| 20260510003011 | 66 | 223 | 0.0 | 0.0 | 0.00 | 0.00 | 0.00 | 63 | 1004.5 |
| 20260510002512 | 66 | 223 | 0.0 | 0.0 | 0.00 | 0.00 | 0.00 | 62 | 1004.3 |
| 20260510002011 | 67 | 223 | 0.0 | 0.0 | 0.00 | 0.00 | 0.00 | 62 | 1004.3 |
| 20260510001511 | 67 | 223 | 0.0 | 0.0 | 0.00 | 0.00 | 0.00 | 61 | 1004.3 |
| 20260510001011 | 67 | 223 | 0.0 | 0.0 | 0.00 | 0.00 | 0.00 | 60 | 1004.3 |
| 20260510000511 | 68 | 223 | 0.0 | 0.0 | 0.00 | 0.00 | 0.00 | 60 | 1004.3 |
| 20260510000013 | 68 | 223 | 0.0 | 0.0 | 0.00 | 0.00 | 0.00 | 59 | 1004.3 |
| 20260509235512 | 68 | 188 | 0.0 | 0.0 | 0.00 | 0.00 | 0.00 | 59 | 1004.3 |
| 20260509235013 | 68 | 192 | 2.0 | 0.0 | 0.00 | 0.00 | 0.00 | 59 | 1004.3 |
| 20260509234511 | 68 | 191 | 0.0 | 0.0 | 0.00 | 0.00 | 0.00 | 59 | 1004.3 |
| 20260509234012 | 68 | 192 | 0.0 | 0.0 | 0.00 | 0.00 | 0.00 | 58 | 1004.3 |
| 20260509233511 | 69 | 192 | 0.0 | 0.0 | 0.00 | 0.00 | 0.00 | 58 | 1004.3 |
| 20260509233011 | 69 | 228 | 0.0 | 0.0 | 0.00 | 0.00 | 0.00 | 58 | 1004.3 |
| 20260509232511 | 69 | 194 | 5.0 | 0.0 | 0.00 | 0.00 | 0.00 | 58 | 1004.2 |
| 20260509232011 | 69 | 218 | 0.0 | 0.0 | 0.00 | 0.00 | 0.00 | 58 | 1004.2 |
| 20260509231511 | 69 | 217 | 0.0 | 0.0 | 0.00 | 0.00 | 0.00 | 58 | 1004.2 |
| 20260509231011 | 69 | 195 | 2.0 | 0.0 | 0.00 | 0.00 | 0.00 | 58 | 1004.1 |
| 20260509230511 | 69 | 170 | 0.0 | 0.0 | 0.00 | 0.00 | 0.00 | 58 | 1004.1 |
| 20260509230011 | 69 | 210 | 0.0 | 0.0 | 0.00 | 0.00 | 0.00 | 57 | 1004.1 |
| 20260509225511 | 69 | 210 | 0.0 | 0.0 | 0.00 | 0.00 | 0.00 | 57 | 1004.1 |
| 20260509225011 | 70 | 206 | 4.0 | 0.0 | 0.00 | 0.00 | 0.00 | 56 | 1004.1 |
| 20260509224511 | 70 | 212 | 0.0 | 0.0 | 0.00 | 0.00 | 0.00 | 56 | 1004.1 |
| 20260509223511 | 70 | 183 | 0.0 | 0.0 | 0.00 | 0.00 | 0.00 | 58 | 1004.0 |
| 20260509223011 | 70 | 143 | 3.0 | 0.0 | 0.00 | 0.00 | 0.00 | 57 | 1004.0 |
| 20260509222511 | 69 | 231 | 2.0 | 0.0 | 0.00 | 0.00 | 0.00 | 58 | 1004.1 |
| 20260509221011 | 69 | 195 | 0.0 | 0.0 | 0.00 | 0.00 | 0.00 | 58 | 1004.2 |
| 20260509220512 | 70 | 216 | 2.0 | 0.0 | 0.00 | 0.00 | 0.00 | 57 | 1004.2 |
| 20260509220011 | 70 | 193 | 0.0 | 0.0 | 0.00 | 0.00 | 0.00 | 57 | 1004.2 |
| 20260509215512 | 69 | 200 | 4.0 | 0.0 | 0.00 | 0.00 | 0.00 | 57 | 1004.3 |
| 20260509215012 | 70 | 193 | 2.0 | 0.0 | 0.00 | 0.00 | 0.00 | 56 | 1004.3 |
| 20260509214511 | 70 | 205 | 12.0 | 0.0 | 0.00 | 0.00 | 0.00 | 56 | 1004.3 |
| 20260509214010 | 70 | 196 | 2.0 | 0.0 | 0.00 | 0.00 | 0.00 | 56 | 1004.3 |
| 20260509213510 | 71 | 199 | 8.0 | 0.0 | 0.00 | 0.00 | 0.00 | 54 | 1004.3 |
| 20260509213010 | 71 | 203 | 2.0 | 0.0 | 0.00 | 0.00 | 0.00 | 56 | 1004.3 |
| 20260509212510 | 71 | 35 | 0.0 | 0.0 | 0.00 | 0.00 | 0.00 | 55 | 1004.1 |
| 20260509212012 | 71 | 209 | 0.0 | 0.0 | 0.00 | 0.00 | 0.00 | 56 | 1004.1 |
| 20260509211011 | 71 | 208 | 0.0 | 0.0 | 0.00 | 0.00 | 0.00 | 54 | 1004.1 |
| 20260509210510 | 71 | 218 | 0.0 | 0.0 | 0.00 | 0.00 | 0.00 | 57 | 1004.1 |
| 20260509210011 | 71 | 198 | 3.0 | 0.0 | 0.00 | 0.00 | 0.00 | 56 | 1004.1 |
| 20260509205512 | 70 | 183 | 0.0 | 0.0 | 0.00 | 0.00 | 0.00 | 55 | 1004.3 |
| 20260509205010 | 70 | 183 | 2.0 | 0.0 | 0.00 | 0.00 | 0.00 | 59 | 1004.3 |
| 20260509204511 | 69 | 183 | 0.0 | 0.0 | 0.00 | 0.00 | 0.00 | 57 | 1004.3 |
| 20260509204014 | 69 | 183 | 0.0 | 0.0 | 0.00 | 0.00 | 0.00 | 57 | 1004.2 |
| 20260509203512 | 69 | 203 | 3.0 | 0.0 | 0.00 | 0.00 | 0.00 | 58 | 1004.2 |
| 20260509203011 | 70 | 193 | 13.0 | 0.0 | 0.00 | 0.00 | 0.00 | 57 | 1004.2 |
| 20260509202510 | 69 | 195 | 0.0 | 0.0 | 0.00 | 0.00 | 0.00 | 57 | 1004.1 |
| 20260509201511 | 70 | 231 | 0.0 | 0.0 | 0.00 | 0.00 | 0.00 | 56 | 1004.1 |
| 20260509201012 | 70 | 231 | 0.0 | 0.0 | 0.00 | 0.00 | 0.00 | 56 | 1004.1 |
| 20260509200510 | 70 | 203 | 0.0 | 0.0 | 0.00 | 0.00 | 0.00 | 55 | 1004.1 |
| 20260509195512 | 70 | 176 | 4.0 | 0.0 | 0.00 | 0.00 | 0.00 | 55 | 1004.1 |
| 20260509195012 | 70 | 167 | 7.0 | 0.0 | 0.00 | 0.00 | 0.00 | 56 | 1004.1 |
| 20260509194010 | 70 | 207 | 1.0 | 0.0 | 0.00 | 0.00 | 0.00 | 55 | 1004.0 |
| 20260509193510 | 70 | 206 | 0.0 | 0.0 | 0.00 | 0.00 | 0.00 | 54 | 1004.0 |
| 20260509192510 | 71 | 205 | 0.0 | 0.0 | 0.00 | 0.00 | 0.00 | 52 | 1004.1 |
| 20260509192010 | 71 | 203 | 4.0 | 0.0 | 0.00 | 0.00 | 0.00 | 54 | 1004.1 |
| 20260509191512 | 71 | 231 | 0.0 | 0.0 | 0.00 | 0.00 | 0.00 | 54 | 1004.1 |
| 20260509191012 | 70 | 191 | 0.0 | 0.0 | 0.00 | 0.00 | 0.00 | 55 | 1004.3 |
| 20260509190512 | 70 | 195 | 1.0 | 0.0 | 0.00 | 0.00 | 0.00 | 54 | 1004.3 |
| 20260509190012 | 71 | 191 | 4.0 | 0.0 | 0.00 | 0.00 | 0.00 | 54 | 1004.3 |
| 20260509185510 | 70 | 186 | 0.0 | 0.0 | 0.00 | 0.00 | 0.00 | 56 | 1004.3 |
| 20260509185010 | 70 | 191 | 3.0 | 0.0 | 0.00 | 0.00 | 0.00 | 56 | 1004.3 |
| 20260509184010 | 70 | 30 | 3.0 | 0.0 | 0.00 | 0.00 | 0.00 | 56 | 1004.2 |
| 20260509183510 | 69 | 188 | 1.0 | 0.0 | 0.00 | 0.00 | 0.00 | 58 | 1004.2 |
| 20260509182510 | 68 | 206 | 6.0 | 0.0 | 0.00 | 0.00 | 0.00 | 57 | 1004.5 |
| 20260509182010 | 68 | 165 | 1.0 | 0.0 | 0.00 | 0.00 | 0.00 | 58 | 1004.5 |
| 20260509181510 | 68 | 216 | 0.0 | 0.0 | 0.00 | 0.00 | 0.00 | 58 | 1004.5 |
| 20260509181011 | 68 | 342 | 0.0 | 0.0 | 0.00 | 0.00 | 0.00 | 60 | 1004.6 |
| 20260509180510 | 68 | 271 | 6.0 | 0.0 | 0.00 | 0.00 | 0.00 | 59 | 1004.6 |
| 20260509180010 | 67 | 112 | 0.0 | 0.0 | 0.00 | 0.00 | 0.00 | 58 | 1004.6 |